Theta_e
310 310 310 310 310 310 309 309 309 309 309 309 309 309 310 310 310 316 318 315 315 314 316 317 316 317 318 320 319 320 320 320 321 320 319 317 318 319 318 317 316 316 317 318 318
312 311 311 311 311 311 311 311 310 310 310 310 309 308 307 308 311 317 317 314 312 312 316 316 318 318 318 320 321 320 322 321 318 317 317 316 315 315 315 315 315 315 316 318 318
314 313 313 313 313 314 314 315 315 314 314 313 313 312 309 307 319 316 313 312 310 312 316 317 317 318 319 319 320 321 321 319 318 318 317 317 315 315 314 315 315 314 314 315 317
315 314 314 315 316 316 317 317 317 316 315 315 314 313 311 312 316 312 314 313 311 313 316 316 316 318 318 319 319 318 318 318 318 318 318 317 316 315 314 314 315 314 314 314 313
315 315 315 315 316 318 319 319 319 319 318 317 315 313 312 317 315 316 311 311 311 315 315 316 316 317 318 317 316 317 317 318 317 316 316 316 316 316 315 314 314 314 313 313 313
315 315 316 317 319 320 321 322 322 321 320 318 315 312 316 317 313 318 315 312 314 314 315 315 316 316 316 316 315 316 316 315 315 314 314 315 315 315 314 313 313 313 313 312 312
315 316 317 319 320 322 323 323 323 321 320 316 312 310 316 315 314 316 313 316 315 314 315 315 315 316 316 316 314 315 314 314 314 314 314 315 315 314 313 313 312 313 311 311 311
317 318 319 320 322 323 323 323 322 320 314 311 309 315 315 311 312 310 314 313 313 314 314 314 314 314 315 315 315 315 314 315 316 316 314 313 314 314 313 312 312 312 312 311 312
318 318 319 321 323 323 323 322 321 312 312 309 316 318 315 309 311 310 312 312 313 312 312 311 313 314 315 315 315 314 314 315 316 316 314 313 314 314 313 312 312 313 312 311 311
319 319 320 322 323 323 323 321 315 313 317 315 315 313 311 313 311 310 309 311 312 313 313 313 313 314 313 313 314 316 316 316 315 316 314 314 314 314 314 313 313 312 311 311 309
320 321 322 323 323 323 323 319 320 319 315 321 322 318 322 311 309 310 310 311 312 313 314 313 313 314 314 314 315 315 314 314 314 315 314 315 315 313 313 313 313 312 311 309 309
322 322 322 323 323 323 320 321 314 313 320 321 322 322 319 312 316 311 309 312 313 314 314 314 314 315 315 315 314 314 314 313 315 315 313 313 313 313 313 312 312 312 310 309 307
323 323 323 323 322 322 320 315 315 312 319 322 317 317 314 312 319 315 311 313 314 316 316 316 317 316 316 315 315 315 315 315 314 313 312 311 312 313 314 313 310 309 307 306 304
323 323 323 321 322 323 320 317 314 312 322 324 315 311 309 312 314 309 310 312 315 317 317 318 312 313 313 314 314 314 314 313 313 312 312 310 312 314 314 310 309 307 305 303 302
324 323 322 321 324 323 316 318 315 312 329 319 311 309 309 311 311 310 308 310 315 314 313 316 312 312 313 313 313 314 311 312 311 312 312 313 313 315 314 311 309 306 305 302 301
323 322 320 320 321 319 319 319 316 325 328 318 312 313 310 309 309 310 310 309 309 312 312 312 310 311 315 313 312 311 310 310 310 312 316 319 319 317 312 311 308 306 304 303 301
320 319 319 321 321 319 319 321 328 328 323 321 315 312 314 312 311 311 312 312 315 318 317 315 312 312 314 315 311 310 311 318 321 317 320 318 319 319 311 309 308 306 304 302 300
317 317 317 319 319 319 321 326 329 323 322 321 319 316 321 316 316 313 315 318 318 318 319 320 318 314 310 314 313 312 315 320 322 322 320 316 318 319 309 307 306 305 302 301 299
309 309 311 314 318 318 323 325 324 321 319 320 323 323 323 323 323 320 319 319 318 318 320 316 317 309 309 309 310 314 316 313 321 318 322 318 315 311 309 308 306 304 301 299 297
308 309 311 311 317 318 321 322 320 318 318 320 322 319 318 319 320 318 316 315 313 310 312 317 320 318 311 308 308 309 308 316 316 319 312 314 313 314 312 309 307 303 300 298 297
306 309 310 311 314 315 318 317 316 315 316 318 319 319 317 315 314 315 315 316 317 310 311 317 318 316 315 313 315 310 311 310 311 314 316 315 312 309 310 308 304 300 299 298 296
308 309 307 314 313 313 314 312 310 311 311 313 313 314 314 312 313 313 314 313 313 312 314 315 316 315 314 311 310 310 312 312 315 316 312 314 314 305 303 301 301 300 298 296 295
306 308 308 312 311 311 311 311 310 311 311 312 313 313 312 312 314 312 311 312 312 313 315 313 313 312 309 307 311 313 312 312 312 312 315 317 315 308 302 301 300 302 299 295 294
305 307 308 308 310 312 311 311 311 310 311 311 311 310 312 312 311 310 309 313 310 310 310 310 313 308 307 306 308 306 307 307 308 312 309 309 308 306 304 303 301 303 300 293 293
303 303 306 308 309 310 310 309 310 311 310 309 310 310 309 309 308 308 308 308 308 306 308 308 308 307 308 307 305 304 304 306 306 305 305 303 302 303 303 299 295 292 291 292 292
301 301 301 304 306 308 308 307 308 306 308 307 308 306 307 307 308 304 304 306 306 303 304 303 297 299 295 301 302 303 302 301 301 302 301 301 301 301 295 295 295 294 291 291 290
296 297 300 303 304 307 308 306 307 306 306 304 304 304 305 304 301 300 301 299 302 302 301 300 297 292 292 299 297 293 297 299 299 299 298 298 298 293 294 292 291 290 291 290 290
Wind_Speed
3 4 5 5 6 6 7 7 8 9 9 9 10 11 13 15 17 11 7 4 5 9 6 5 4 4 4 3 1 2 3 4 7 5 4 6 2 2 0 4 6 6 4 6 12
5 5 5 6 6 7 7 8 9 9 9 10 10 10 12 15 16 10 9 9 8 7 9 8 6 6 4 4 3 2 3 5 6 8 7 10 8 7 7 8 8 8 12 19 13
5 6 6 6 7 8 9 9 11 11 11 12 11 11 10 12 5 2 1 2 5 10 7 9 9 4 7 5 5 5 4 7 9 10 7 7 9 8 9 9 9 11 12 6 7
5 5 5 6 7 8 9 10 12 13 13 13 13 10 8 4 5 1 1 1 6 11 4 4 5 4 5 6 8 7 8 8 9 7 1 5 8 11 11 12 11 12 11 9 10
5 5 5 5 6 8 10 11 13 14 15 14 13 8 3 4 4 4 4 3 8 10 10 7 7 6 7 6 7 7 10 9 10 8 7 7 9 9 21 16 15 14 13 10 10
5 5 5 5 7 9 11 13 15 15 15 14 10 5 1 6 2 3 3 5 5 9 9 10 5 3 7 6 8 7 8 9 9 14 14 11 8 4 15 11 13 10 10 9 10
6 5 4 5 7 9 11 15 16 16 14 12 8 3 4 7 2 2 2 2 6 7 9 8 7 1 6 6 6 7 6 10 13 11 7 5 4 11 16 10 9 9 10 10 8
6 5 4 5 7 10 13 16 16 13 10 8 3 4 5 4 3 1 2 0 3 5 4 4 2 5 4 6 5 7 6 5 7 8 3 7 6 12 9 8 11 15 13 9 10
7 6 5 6 8 12 15 17 15 7 5 2 2 3 3 3 4 2 4 2 4 2 1 1 2 4 5 4 5 7 5 10 10 9 5 6 5 7 10 11 11 17 11 10 9
8 7 7 8 9 13 15 15 9 4 4 2 4 2 3 2 2 2 1 7 3 7 4 4 4 3 3 4 5 7 10 11 11 8 11 11 11 9 8 10 19 10 9 8 18
9 9 9 11 11 12 13 5 3 2 6 6 4 9 5 3 3 3 2 5 4 3 4 5 3 6 10 11 11 4 8 11 11 10 12 13 11 12 12 13 18 14 8 15 17
11 10 10 12 11 8 5 2 3 1 6 10 16 9 3 1 2 6 6 5 4 6 8 3 6 11 7 7 8 8 10 11 8 7 8 10 13 17 21 13 7 7 14 15 15
13 11 9 7 6 2 2 3 1 1 4 3 3 1 3 1 3 5 4 3 5 7 8 10 7 10 8 8 10 11 9 9 7 7 8 8 7 8 7 9 17 18 16 18 16
17 12 9 5 4 3 3 1 1 1 4 7 4 3 4 3 3 1 2 2 3 5 4 7 3 1 4 7 6 8 7 3 6 5 3 7 5 4 14 14 15 13 13 12 12
19 14 10 8 2 3 5 2 1 1 4 4 4 3 3 3 3 2 1 3 6 6 3 2 7 6 6 6 2 6 2 3 5 5 5 7 4 5 7 11 10 10 10 8 8
18 14 10 6 6 5 5 1 1 2 7 4 5 5 4 5 4 4 3 3 3 2 5 9 2 3 5 6 2 5 3 8 8 4 2 1 1 4 3 11 6 8 8 8 7
15 11 12 9 3 7 7 3 3 5 3 5 3 4 5 5 5 6 5 4 4 3 5 5 8 5 4 2 4 3 4 4 2 1 5 7 3 4 5 5 14 13 9 8 7
13 11 9 5 6 9 6 3 8 4 8 3 2 4 4 7 6 7 4 8 10 11 1 4 3 1 2 2 2 6 2 3 5 3 3 7 5 5 6 11 13 12 9 8 7
10 6 1 6 9 9 2 6 5 8 3 5 5 5 8 10 5 3 6 10 2 1 4 2 4 4 4 3 1 2 3 2 2 1 1 5 6 2 9 9 9 9 9 8 7
8 2 4 5 8 4 3 6 6 2 2 4 8 7 6 4 6 7 6 4 3 4 4 3 4 2 3 2 1 2 1 2 2 3 5 6 4 7 5 11 9 8 8 7 7
9 1 5 11 6 1 5 6 11 10 5 5 7 11 7 5 5 5 3 4 5 4 4 5 0 2 0 4 4 0 2 2 1 3 4 8 6 7 9 8 10 7 5 4 4
8 3 5 19 4 3 8 4 4 5 4 5 4 5 6 5 6 9 9 6 7 6 6 5 3 4 8 7 8 5 7 8 7 6 4 11 15 10 11 8 8 4 4 5 4
3 3 6 6 5 11 6 8 7 5 9 5 7 8 3 6 4 7 7 8 6 3 1 3 2 2 7 3 5 5 1 1 5 1 6 8 4 6 11 10 8 11 6 5 4
2 3 2 3 6 5 13 13 12 6 9 9 3 4 4 6 5 2 2 3 4 4 6 3 2 5 6 8 9 5 8 8 3 5 9 14 18 22 17 9 5 5 8 6 6
2 3 3 5 9 12 6 5 16 10 6 4 4 10 7 5 8 12 9 5 7 7 4 1 5 4 10 11 8 5 11 18 13 15 12 24 22 23 17 8 5 5 5 2 1
2 3 1 3 10 14 15 8 12 6 8 8 9 4 10 11 5 2 3 2 2 4 3 2 3 4 6 5 10 14 21 17 19 19 20 20 23 16 4 4 3 3 4 1 1
2 2 1 5 3 10 14 16 7 6 3 2 1 2 4 4 8 7 4 5 2 3 5 6 4 2 6 1 4 7 16 19 18 19 19 18 15 1 2 3 4 5 3 4 5
Wind_Direction
1 356 357 356 351 346 342 340 339 338 336 333 329 326 325 324 321 314 260 250 208 240 176 156 199 219 239 237 279 300 292 271 279 319 285 112 159 106 51 288 290 194 222 195 180
354 350 347 348 348 344 341 339 337 335 334 332 329 327 323 321 317 260 261 263 263 204 165 183 197 193 245 199 173 229 239 266 324 339 332 332 343 327 326 289 289 292 246 224 197
342 345 349 353 351 350 346 347 343 336 330 327 326 328 329 326 283 91 206 219 194 177 179 224 273 194 243 259 199 206 222 280 314 331 27 334 310 297 279 277 257 273 314 322 206
319 326 336 345 351 349 348 344 339 330 325 322 319 323 325 340 302 139 36 336 181 173 222 220 241 211 229 244 214 259 253 268 284 282 329 277 309 304 280 258 268 278 274 282 281
302 309 323 335 342 344 344 336 332 326 320 315 310 312 324 229 262 275 293 253 181 175 220 220 233 226 253 265 306 263 259 261 285 298 273 274 269 273 282 277 276 272 273 264 267
281 293 310 327 340 344 340 332 327 324 316 311 305 289 238 237 307 290 262 173 185 200 221 237 254 345 290 279 264 309 337 307 280 270 264 256 262 298 278 277 274 271 275 282 266
265 278 303 326 337 337 333 330 325 323 316 311 306 194 248 251 217 297 104 165 198 222 252 245 291 321 329 313 8 336 318 288 272 264 243 145 307 238 252 285 314 284 274 277 296
252 265 287 310 324 328 329 327 323 319 321 310 277 141 262 214 181 152 232 356 242 209 267 339 353 299 268 307 310 273 256 281 272 263 124 110 257 285 319 349 322 296 284 297 296
253 264 280 299 314 323 326 322 318 320 336 60 90 236 265 125 135 196 179 237 134 152 64 106 193 228 286 234 288 230 254 265 284 275 141 169 236 262 285 282 275 272 287 276 271
253 267 283 296 310 323 325 316 305 303 317 332 274 282 205 118 127 126 163 157 154 146 158 198 219 227 234 222 236 279 296 311 305 314 313 297 267 257 287 300 276 296 295 311 68
251 266 282 294 310 322 331 332 233 193 218 273 296 286 321 102 146 127 142 163 174 220 208 194 209 209 230 239 260 318 314 302 300 303 289 280 305 314 284 268 293 294 266 90 75
247 259 278 304 317 325 324 352 65 143 303 262 259 259 328 72 287 147 156 194 193 213 210 135 227 239 279 329 308 292 289 286 277 300 349 321 301 284 282 269 289 43 54 77 67
251 259 281 291 323 327 29 95 88 67 252 290 53 306 64 201 263 110 215 192 198 230 236 214 257 331 302 293 274 271 265 293 323 340 291 302 276 259 285 67 75 71 69 61 56
243 244 259 270 305 163 150 191 67 84 271 190 170 136 160 260 185 138 264 288 211 244 252 253 102 176 258 259 259 290 279 354 307 341 257 38 282 331 275 89 77 70 64 58 61
228 231 220 219 334 226 162 176 32 107 290 121 139 126 118 251 129 132 241 190 241 185 214 213 165 184 223 230 201 232 88 250 241 233 299 249 255 245 200 120 104 87 80 75 66
206 199 207 222 216 190 169 174 30 215 240 135 129 168 185 181 164 126 223 208 12 315 226 259 52 230 215 225 237 4 300 261 251 218 263 51 311 325 59 145 118 109 94 88 74
191 192 188 185 158 184 160 198 218 233 150 156 168 169 231 167 167 192 171 190 218 220 214 192 206 237 207 239 130 112 299 307 286 136 208 63 13 236 116 129 149 132 115 93 75
176 174 188 173 188 160 145 189 213 233 244 93 132 184 215 152 222 188 238 236 226 238 230 240 316 101 112 244 31 184 265 169 267 311 304 8 254 245 129 85 92 102 105 98 81
140 137 146 211 188 171 166 218 206 208 312 218 173 243 213 219 203 244 249 265 210 138 196 277 217 166 152 70 14 104 208 12 89 15 221 232 279 10 102 105 111 111 92 82 78
115 112 152 191 189 164 211 231 235 304 49 320 214 234 264 237 180 190 209 96 88 41 22 36 296 24 72 114 257 209 354 41 57 237 242 253 281 264 175 151 118 93 84 78 76
116 143 171 161 147 257 229 226 242 253 159 218 236 254 273 283 283 273 241 117 138 128 37 103 182 249 268 179 194 255 231 195 154 216 252 273 263 69 54 94 97 88 91 120 138
156 179 159 156 153 201 228 214 278 223 291 246 287 280 260 265 267 252 247 258 102 126 157 177 189 237 240 301 313 263 269 271 253 258 244 254 258 112 99 100 122 154 189 179 169
149 120 169 186 206 218 226 225 230 210 209 198 225 217 228 236 235 240 246 61 65 115 105 114 218 265 315 277 45 77 241 222 281 253 237 269 262 136 145 162 176 213 201 190 186
133 167 150 211 244 250 220 229 215 207 237 224 258 265 235 237 261 238 217 117 93 97 87 59 184 185 224 264 333 297 294 272 166 274 289 271 285 290 293 315 346 197 202 179 186
182 227 178 192 217 227 262 274 224 202 219 215 233 235 215 227 239 239 232 204 125 134 105 5 247 220 255 272 300 290 275 272 270 259 255 272 280 276 290 317 117 117 96 73 245
173 182 204 310 193 202 213 231 231 260 165 202 231 251 217 234 205 212 66 84 143 136 137 90 265 33 284 260 263 266 262 267 267 264 264 265 267 284 359 120 172 163 141 130 335
84 326 317 182 198 193 210 222 224 196 166 342 287 43 158 6 65 70 57 13 33 143 170 168 160 145 255 65 356 301 249 247 254 260 264 268 273 13 271 103 68 49 0 294 305